Flag for United Arab Emirates Weather past 2 weeks in Ras al-Khaimah, Ras al-Khaimah, United Arab Emirates

Now
66 °F

Clear.


Feels Like: 66 °F
Forecast: 63 / 86 °F
Wind: 6 mph from West

Location: Ras Al Khaimah International Airport

Current Time: Mar 27, 2015 at 5:58:03 AM

Latest Report: Mar 27, 2015 at 5:00 AM


Visibility: 10 mi

Pressure: 29.98 "Hg

Humidity: 73%

Dew point: 57 °F

Location of Ras al-KhaimahLocation

Historic Weather in Ras al-Khaimah — Graph

°F

Ras al-Khaimah temperature yesterday

Maximum temperature yesterday: 91 °F (at 2:00 PM)
Minimum temperature yesterday: 61 °F (at 5:00 AM)
Average temperature yesterday: 75 °F

Past Weeks' High & Low Weather Summary

 TemperatureHumidityPressure
High95 °F (Mar 21, 1:00 PM)100% (Mar 25, 4:00 AM)30.09 "Hg (Mar 25, 4:00 AM)
Low52 °F (Mar 14, 7:00 AM)21% (Mar 16, 12:00 PM)29.89 "Hg (Mar 18, 3:00 PM)
Average75 °F56%29.97 "Hg
* Reported Mar 12 5:00 AM — Mar 27 5:00 AM, Ras al-Khaimah, Weather by CustomWeather, © 2015

Note: Actual official high and low records may vary slightly from our data, if they occured in-between our weather recording intervals... More about our weather records

Advertising

Ras al-Khaimah weather history for previous 24 hours

 ConditionsComfort  
Time TempWeatherWind HumidityBarometerVisibility
5:00 AM
Fri, Mar 27
66 °FClear.6 mph73%29.98 "Hg10 mi
4:00 AM68 °FClear.6 mph69%29.95 "Hg10 mi
3:00 AM70 °FClear.6 mph69%29.92 "Hg10 mi
2:00 AM72 °FClear.7 mph65%29.92 "Hg10 mi
1:00 AM72 °FClear.6 mph69%29.95 "Hg10 mi
12:00 AM72 °FClear.7 mph73%29.95 "Hg10 mi
11:00 PM
Thu, Mar 26
72 °FClear.2 mph69%29.98 "Hg10 mi
10:00 PM73 °FClear.2 mph69%30.01 "Hg10 mi
9:00 PM75 °FClear.No wind65%30.01 "Hg10 mi
8:00 PM75 °FClear.3 mph65%29.98 "Hg10 mi
7:00 PM77 °FClear.7 mph57%29.95 "Hg10 mi
6:00 PM81 °FSunny.8 mph48%29.95 "Hg10 mi
5:00 PM86 °FPassing clouds.12 mph38%29.92 "HgN/A
4:00 PM90 °FPassing clouds.13 mph29%29.92 "HgN/A
3:00 PM90 °FSunny.9 mph24%29.92 "Hg10 mi
2:00 PM91 °FPassing clouds.7 mph24%29.92 "HgN/A
1:00 PM90 °FSunny.9 mph27%29.95 "Hg10 mi
12:00 PM88 °FSunny.9 mph31%29.98 "Hg10 mi
11:00 AM86 °FSunny.5 mph35%30.01 "Hg10 mi
10:00 AM81 °FSunny.No wind42%30.01 "Hg10 mi
9:00 AM75 °FSunny.5 mph50%30.01 "Hg10 mi
8:00 AM70 °FSunny.5 mph57%29.98 "Hg10 mi
7:00 AM64 °FSunny.5 mph73%29.98 "Hg10 mi
6:00 AM63 °FClear.5 mph77%29.95 "Hg5 mi
5:00 AM61 °FClear.2 mph88%29.95 "Hg5 mi
Weather by CustomWeather, © 2015

See weather overviewHow to use our weather pages